Time,TemperatureF,DewpointF,PressureIn,WindDirection,WindDirectionDegrees,WindSpeedMPH,WindSpeedGustMPH,Humidity,HourlyPrecipIn,Conditions,Clouds,dailyrainin,SoftwareType,DateUTC
2013-05-03 00:03:00,62.5,27.0,30.14,WSW,253,1.0,1.0,26,0.00,,,0.00,weatherlink.com 1.10,2013-05-03 07:03:00,
2013-05-03 00:18:00,62.4,28.0,30.13,WSW,253,1.0,1.0,27,0.00,,,0.00,weatherlink.com 1.10,2013-05-03 07:18:00,
2013-05-03 00:33:00,62.0,27.0,30.13,WSW,245,1.0,1.0,26,0.00,,,0.00,weatherlink.com 1.10,2013-05-03 07:33:00,
2013-05-03 00:48:00,62.1,28.0,30.13,SW,218,1.0,1.0,28,0.00,,,0.00,weatherlink.com 1.10,2013-05-03 07:48:00,
2013-05-03 01:03:00,62.4,28.0,30.13,SSE,153,1.0,2.0,27,0.00,,,0.00,weatherlink.com 1.10,2013-05-03 08:03:00,
2013-05-03 01:18:00,61.9,27.0,30.12,SSW,195,1.0,1.0,27,0.00,,,0.00,weatherlink.com 1.10,2013-05-03 08:18:00,
2013-05-03 01:33:00,60.6,28.0,30.12,SSW,195,0.0,1.0,29,0.00,,,0.00,weatherlink.com 1.10,2013-05-03 08:33:00,
2013-05-03 01:48:00,60.4,29.0,30.12,SSW,195,1.0,1.0,30,0.00,,,0.00,weatherlink.com 1.10,2013-05-03 08:48:00,
2013-05-03 02:03:00,60.5,26.0,30.11,SSE,164,1.0,2.0,27,0.00,,,0.00,weatherlink.com 1.10,2013-05-03 09:03:00,
2013-05-03 02:18:00,60.8,25.0,30.11,SW,227,1.0,1.0,26,0.00,,,0.00,weatherlink.com 1.10,2013-05-03 09:18:00,
2013-05-03 02:33:00,60.2,26.0,30.11,SW,232,1.0,1.0,27,0.00,,,0.00,weatherlink.com 1.10,2013-05-03 09:33:00,
2013-05-03 02:48:00,59.7,27.0,30.10,WSW,248,0.0,2.0,29,0.00,,,0.00,weatherlink.com 1.10,2013-05-03 09:48:00,
2013-05-03 03:03:00,60.0,25.0,30.10,West,262,1.0,1.0,26,0.00,,,0.00,weatherlink.com 1.10,2013-05-03 10:03:00,
2013-05-03 03:19:00,60.1,27.0,30.09,WSW,238,0.0,1.0,28,0.00,,,0.00,weatherlink.com 1.10,2013-05-03 10:19:00,
2013-05-03 03:34:00,59.7,29.0,30.09,WSW,240,0.0,1.0,31,0.00,,,0.00,weatherlink.com 1.10,2013-05-03 10:34:00,
2013-05-03 03:49:00,59.3,30.0,30.09,WSW,248,0.0,1.0,33,0.00,,,0.00,weatherlink.com 1.10,2013-05-03 10:49:00,
2013-05-03 04:04:00,59.3,30.0,30.09,WSW,246,0.0,1.0,33,0.00,,,0.00,weatherlink.com 1.10,2013-05-03 11:04:00,
2013-05-03 04:19:00,59.6,30.0,30.09,SSW,200,1.0,2.0,32,0.00,,,0.00,weatherlink.com 1.10,2013-05-03 11:19:00,
2013-05-03 04:34:00,59.8,30.0,30.08,SE,128,1.0,2.0,32,0.00,,,0.00,weatherlink.com 1.10,2013-05-03 11:34:00,
2013-05-03 04:49:00,60.3,29.0,30.08,South,190,1.0,2.0,31,0.00,,,0.00,weatherlink.com 1.10,2013-05-03 11:49:00,
2013-05-03 05:04:00,59.6,30.0,30.08,SSW,200,1.0,1.0,32,0.00,,,0.00,weatherlink.com 1.10,2013-05-03 12:04:00,
2013-05-03 05:20:00,58.9,30.0,30.07,SW,224,0.0,1.0,34,0.00,,,0.00,weatherlink.com 1.10,2013-05-03 12:20:00,
2013-05-03 05:34:00,58.6,31.0,30.07,SW,224,0.0,1.0,35,0.00,,,0.00,weatherlink.com 1.10,2013-05-03 12:34:00,
2013-05-03 05:49:00,58.6,30.0,30.07,SW,224,0.0,1.0,34,0.00,,,0.00,weatherlink.com 1.10,2013-05-03 12:49:00,
2013-05-03 06:04:00,57.1,30.0,30.07,SW,224,1.0,1.0,36,0.00,,,0.00,weatherlink.com 1.10,2013-05-03 13:04:00,
2013-05-03 06:19:00,57.5,30.0,30.07,West,259,0.0,1.0,35,0.00,,,0.00,weatherlink.com 1.10,2013-05-03 13:19:00,
2013-05-03 06:34:00,58.7,31.0,30.07,West,259,0.0,1.0,35,0.00,,,0.00,weatherlink.com 1.10,2013-05-03 13:34:00,
2013-05-03 06:49:00,60.1,35.0,30.07,West,259,0.0,1.0,39,0.00,,,0.00,weatherlink.com 1.10,2013-05-03 13:49:00,
2013-05-03 07:04:00,62.0,38.0,30.07,West,259,0.0,1.0,41,0.00,,,0.00,weatherlink.com 1.10,2013-05-03 14:04:00,
2013-05-03 07:19:00,64.2,39.0,30.08,West,259,0.0,1.0,40,0.00,,,0.00,weatherlink.com 1.10,2013-05-03 14:19:00,
2013-05-03 07:34:00,66.3,35.0,30.07,WSW,240,0.0,1.0,32,0.00,,,0.00,weatherlink.com 1.10,2013-05-03 14:34:00,
2013-05-03 07:49:00,68.8,38.0,30.07,NW,318,0.0,0.0,33,0.00,,,0.00,weatherlink.com 1.10,2013-05-03 14:49:00,
2013-05-03 08:04:00,69.3,34.0,30.07,North,8,2.0,2.0,27,0.00,,,0.00,weatherlink.com 1.10,2013-05-03 15:04:00,
2013-05-03 08:19:00,68.9,35.0,30.07,SE,124,0.0,2.0,29,0.00,,,0.00,weatherlink.com 1.10,2013-05-03 15:19:00,
2013-05-03 08:34:00,70.7,38.0,30.07,NNW,329,1.0,2.0,30,0.00,,,0.00,weatherlink.com 1.10,2013-05-03 15:34:00,
2013-05-03 08:49:00,72.6,37.0,30.07,NNW,347,2.0,3.0,27,0.00,,,0.00,weatherlink.com 1.10,2013-05-03 15:49:00,
2013-05-03 09:04:00,75.0,37.0,30.06,NNW,331,1.0,2.0,25,0.00,,,0.00,weatherlink.com 1.10,2013-05-03 16:04:00,
2013-05-03 09:19:00,77.2,35.0,30.06,WSW,240,1.0,3.0,22,0.00,,,0.00,weatherlink.com 1.10,2013-05-03 16:19:00,
2013-05-03 09:34:00,77.8,34.0,30.06,North,360,2.0,4.0,20,0.00,,,0.00,weatherlink.com 1.10,2013-05-03 16:34:00,
2013-05-03 09:50:00,78.0,37.0,30.05,East,88,2.0,3.0,23,0.00,,,0.00,weatherlink.com 1.10,2013-05-03 16:50:00,
2013-05-03 10:05:00,79.5,39.0,30.05,NW,323,1.0,3.0,23,0.00,,,0.00,weatherlink.com 1.10,2013-05-03 17:05:00,
2013-05-03 10:20:00,79.6,40.0,30.05,ENE,68,2.0,3.0,24,0.00,,,0.00,weatherlink.com 1.10,2013-05-03 17:20:00,
2013-05-03 10:35:00,79.8,42.0,30.05,ESE,117,0.0,4.0,26,0.00,,,0.00,weatherlink.com 1.10,2013-05-03 17:35:00,
2013-05-03 10:50:00,81.0,39.0,30.04,NE,41,1.0,4.0,22,0.00,,,0.00,weatherlink.com 1.10,2013-05-03 17:50:00,
2013-05-03 11:05:00,81.8,37.0,30.04,West,268,1.0,4.0,20,0.00,,,0.00,weatherlink.com 1.10,2013-05-03 18:05:00,
2013-05-03 11:20:00,82.7,38.0,30.04,SE,129,3.0,5.0,20,0.00,,,0.00,weatherlink.com 1.10,2013-05-03 18:20:00,
2013-05-03 11:35:00,82.7,35.0,30.04,WNW,297,2.0,6.0,18,0.00,,,0.00,weatherlink.com 1.10,2013-05-03 18:35:00,
2013-05-03 11:50:00,83.7,34.0,30.03,East,101,1.0,5.0,17,0.00,,,0.00,weatherlink.com 1.10,2013-05-03 18:50:00,
2013-05-03 12:05:00,83.6,36.0,30.02,North,8,1.0,3.0,18,0.00,,,0.00,weatherlink.com 1.10,2013-05-03 19:05:00,
2013-05-03 12:20:00,85.2,36.0,30.02,NW,309,5.0,7.0,17,0.00,,,0.00,weatherlink.com 1.10,2013-05-03 19:20:00,
2013-05-03 12:35:00,85.3,36.0,30.01,NW,306,1.0,5.0,17,0.00,,,0.00,weatherlink.com 1.10,2013-05-03 19:35:00,
2013-05-03 12:50:00,86.6,37.0,30.00,NNE,18,2.0,6.0,17,0.00,,,0.00,weatherlink.com 1.10,2013-05-03 19:50:00,
2013-05-03 13:05:00,86.9,36.0,30.00,NNW,340,6.0,8.0,16,0.00,,,0.00,weatherlink.com 1.10,2013-05-03 20:05:00,
2013-05-03 13:20:00,86.8,34.0,29.99,NNE,18,2.0,8.0,15,0.00,,,0.00,weatherlink.com 1.10,2013-05-03 20:20:00,
2013-05-03 13:35:00,87.6,36.0,29.98,NW,325,4.0,6.0,16,0.00,,,0.00,weatherlink.com 1.10,2013-05-03 20:35:00,
2013-05-03 13:50:00,88.2,35.0,29.98,NW,306,2.0,7.0,15,0.00,,,0.00,weatherlink.com 1.10,2013-05-03 20:50:00,
2013-05-03 14:05:00,88.3,33.0,29.98,NNW,335,2.0,8.0,14,0.00,,,0.00,weatherlink.com 1.10,2013-05-03 21:05:00,
2013-05-03 14:20:00,88.3,35.0,29.97,ENE,57,4.0,8.0,15,0.00,,,0.00,weatherlink.com 1.10,2013-05-03 21:20:00,
2013-05-03 14:35:00,88.4,32.0,29.96,NNW,331,3.0,9.0,13,0.00,,,0.00,weatherlink.com 1.10,2013-05-03 21:35:00,
2013-05-03 14:50:00,88.6,35.0,29.96,NNW,343,2.0,5.0,15,0.00,,,0.00,weatherlink.com 1.10,2013-05-03 21:50:00,
2013-05-03 15:06:00,89.2,34.0,29.95,NE,51,2.0,7.0,14,0.00,,,0.00,weatherlink.com 1.10,2013-05-03 22:06:00,
2013-05-03 15:20:00,88.7,28.0,29.94,East,94,2.0,13.0,11,0.00,,,0.00,weatherlink.com 1.10,2013-05-03 22:20:00,
2013-05-03 15:35:00,89.3,34.0,29.93,WNW,289,3.0,7.0,14,0.00,,,0.00,weatherlink.com 1.10,2013-05-03 22:35:00,
2013-05-03 15:51:00,89.4,32.0,29.93,NNW,339,2.0,6.0,13,0.00,,,0.00,weatherlink.com 1.10,2013-05-03 22:51:00,
2013-05-03 16:06:00,89.3,34.0,29.93,NNW,343,2.0,6.0,14,0.00,,,0.00,weatherlink.com 1.10,2013-05-03 23:06:00,
2013-05-03 16:21:00,89.0,30.0,29.92,NE,44,0.0,4.0,12,0.00,,,0.00,weatherlink.com 1.10,2013-05-03 23:21:00,
2013-05-03 16:36:00,88.7,30.0,29.92,WNW,284,3.0,8.0,12,0.00,,,0.00,weatherlink.com 1.10,2013-05-03 23:36:00,
2013-05-03 16:51:00,88.5,30.0,29.91,ESE,121,1.0,11.0,12,0.00,,,0.00,weatherlink.com 1.10,2013-05-03 23:51:00,
2013-05-03 17:07:00,88.1,27.0,29.91,ENE,65,5.0,6.0,11,0.00,,,0.00,weatherlink.com 1.10,2013-05-04 00:07:00,
2013-05-03 17:21:00,87.3,27.0,29.90,SE,129,1.0,8.0,11,0.00,,,0.00,weatherlink.com 1.10,2013-05-04 00:21:00,
2013-05-03 17:36:00,86.6,30.0,29.90,North,6,1.0,5.0,13,0.00,,,0.00,weatherlink.com 1.10,2013-05-04 00:36:00,
2013-05-03 17:51:00,85.8,30.0,29.90,NE,39,0.0,3.0,13,0.00,,,0.00,weatherlink.com 1.10,2013-05-04 00:51:00,
2013-05-03 18:06:00,84.7,32.0,29.89,WSW,245,1.0,2.0,15,0.00,,,0.00,weatherlink.com 1.10,2013-05-04 01:06:00,
2013-05-03 18:21:00,83.9,32.0,29.89,West,271,0.0,2.0,15,0.00,,,0.00,weatherlink.com 1.10,2013-05-04 01:21:00,
2013-05-03 18:36:00,82.7,32.0,29.89,East,98,4.0,4.0,16,0.00,,,0.00,weatherlink.com 1.10,2013-05-04 01:36:00,
2013-05-03 18:51:00,81.0,32.0,29.88,WNW,300,0.0,1.0,17,0.00,,,0.00,weatherlink.com 1.10,2013-05-04 01:51:00,
2013-05-03 19:06:00,78.6,42.0,29.88,West,262,0.0,3.0,27,0.00,,,0.00,weatherlink.com 1.10,2013-05-04 02:06:00,
2013-05-03 19:21:00,76.1,43.0,29.88,West,260,1.0,1.0,31,0.00,,,0.00,weatherlink.com 1.10,2013-05-04 02:21:00,
2013-05-03 19:36:00,74.4,43.0,29.87,West,260,0.0,1.0,32,0.00,,,0.00,weatherlink.com 1.10,2013-05-04 02:36:00,
2013-05-03 19:51:00,72.7,43.0,29.87,West,260,0.0,1.0,34,0.00,,,0.00,weatherlink.com 1.10,2013-05-04 02:51:00,
2013-05-03 20:06:00,71.1,41.0,29.88,West,269,1.0,1.0,34,0.00,,,0.00,weatherlink.com 1.10,2013-05-04 03:06:00,
2013-05-03 20:21:00,70.7,40.0,29.88,SW,222,1.0,1.0,33,0.00,,,0.00,weatherlink.com 1.10,2013-05-04 03:21:00,
2013-05-03 20:36:00,69.9,39.0,29.88,SW,222,1.0,1.0,32,0.00,,,0.00,weatherlink.com 1.10,2013-05-04 03:36:00,
2013-05-03 20:48:00,69.8,37.8,29.88,SW,222,0.0,1.0,31,0.00,,,0.00,Wunderground v.1.15,2013-05-04 03:48:00,
2013-05-03 22:46:00,67.7,36.0,29.88,West,259,1.0,1.0,31,0.00,,,0.00,weatherlink.com 1.10,2013-05-04 05:46:00,
2013-05-03 22:53:00,67.4,36.0,29.88,West,262,1.0,1.0,32,0.00,,,0.00,weatherlink.com 1.10,2013-05-04 05:53:00,
2013-05-03 23:08:00,66.8,36.0,29.88,SW,235,0.0,2.0,32,0.00,,,0.00,weatherlink.com 1.10,2013-05-04 06:08:00,
2013-05-03 23:23:00,66.4,36.0,29.87,SSE,165,1.0,3.0,32,0.00,,,0.00,weatherlink.com 1.10,2013-05-04 06:23:00,
2013-05-03 23:38:00,67.6,36.0,29.87,SSE,166,0.0,3.0,31,0.00,,,0.00,weatherlink.com 1.10,2013-05-04 06:38:00,
2013-05-03 23:53:00,68.3,36.0,29.87,SW,232,0.0,3.0,31,0.00,,,0.00,weatherlink.com 1.10,2013-05-04 06:53:00,